[[{"header":{"parameterUnit":"m.s-1","parameterCategory":1,"la1":30.2992,"la2":30.254,"lo1":-89.0895,"lo2":-89.0443,"dy":0.0025,"dx":0.0025,"nx":19,"ny":19,"refTime":"2026-03-10T09:00:00:Z","depth":0,"parameterNumber":2,"parameterNumberName":"U-component_of_WINDS"},"data":[0,0,0,-2.0494,-2.0494,-2.0533,-2.0533,-2.0583,-2.0584,0,0,0,0,0,0,0,0,0,0,0,-2.0482,-2.0482,-2.0494,-2.0494,-2.0533,-2.0533,-2.0583,-2.0584,0,0,0,0,0,0,0,0,0,0,0,-2.0482,-2.0482,-2.0483,-2.0495,-2.0533,-2.0533,-2.0583,-2.0554,0,0,0,0,0,0,0,0,0,0,-2.0516,-2.0506,-2.0482,-2.0483,-2.0495,-2.0533,-2.0533,-2.0552,-2.0556,-2.0566,0,-2.0574,0,-2.058,-2.0587,-2.0587,0,0,0,-2.0495,-2.0503,-2.0513,-2.0483,-2.0495,-2.0533,-2.0516,-2.0554,-2.0558,-2.057,-2.0575,-2.0577,-2.0581,-2.0587,-2.0588,-2.0643,-2.0643,0,0,-2.0493,-2.0489,-2.0511,-2.0515,-2.0509,-2.0514,-2.0517,-2.0556,-2.0562,-2.0575,-2.0578,-2.0581,-2.0588,-2.0588,-2.0643,-2.0643,0,0,0,-2.0486,-2.0488,-2.0497,-2.0513,-2.052,-2.0516,-2.0518,-2.056,-2.0563,-2.0579,-2.0582,-2.0588,-2.0588,-2.0642,-2.0643,-2.065,0,0,0,-2.0485,-2.0484,-2.0496,-2.0495,-2.052,-2.0541,-2.0521,-2.0561,-2.0565,-2.0582,-2.0588,-2.0589,-2.0642,-2.0643,-2.0649,-2.0654,0,0,0,-2.048,-2.0483,-2.0489,-2.0494,-2.0511,-2.054,-2.0546,-2.0562,-2.0567,-2.0587,-2.0589,-2.0642,-2.0643,-2.0649,-2.0653,-2.0666,0,0,0,-2.0473,-2.0497,-2.0489,-2.0516,-2.051,-2.0545,-2.0545,-2.0571,-2.059,-2.0588,-2.0642,-2.0643,-2.0649,-2.0652,-2.0666,-2.0676,-2.0681,0,0,-2.0501,-2.05,-2.0516,-2.051,-2.0545,-2.0539,-2.0575,-2.0595,-2.0601,-2.0629,-2.063,-2.065,-2.0653,-2.0666,-2.0708,-2.0712,0,0,0,-2.0524,-2.0535,-2.0545,-2.0561,-2.0577,-2.059,-2.0605,-2.0612,-2.0636,-2.0614,-2.0659,-2.0661,-2.0669,-2.0674,-2.0677,-2.0683,-2.0645,-2.0645,-2.0645,-2.0557,-2.0562,-2.0589,-2.0598,-2.0614,-2.0628,-2.0642,-2.0654,-2.0656,-2.0666,-2.0674,-2.0699,-2.0705,-2.0707,-2.0713,-2.0681,-2.0681,-2.0681,-2.0681,-2.0597,-2.0613,-2.0613,-2.0639,-2.0644,-2.0666,-2.0681,-2.0681,-2.0702,-2.0694,-2.0701,-2.069,-2.071,-2.0716,-2.0682,-2.0682,-2.0682,-2.0682,-2.0682,-2.0619,-2.0627,-2.0635,-2.0658,-2.0675,-2.0684,-2.0704,-2.0708,-2.0713,-2.072,-2.0728,-2.0728,-2.0727,-2.0724,-2.0724,-2.0724,-2.0724,-2.0724,-2.0724,-2.0637,-2.0646,-2.0661,-2.0678,-2.0689,-2.0703,-2.0717,-2.0728,-2.074,-2.0742,-2.0742,-2.0742,-2.0712,-2.0703,-2.0725,-2.0725,-2.0725,-2.0725,-2.0725,-2.0673,-2.0666,-2.0689,-2.0699,-2.0719,-2.0735,-2.0741,-2.0761,-2.0771,-2.078,-2.0778,-2.0756,-2.0755,-2.0753,-2.0746,-2.0778,-2.0778,-2.0778,-2.0778,-2.0691,-2.0691,-2.0715,-2.073,-2.0746,-2.0753,-2.0779,-2.0791,-2.0801,-2.0807,-2.0804,-2.0795,-2.0793,-2.0794,-2.0791,-2.0784,-2.0825,-2.0825,-2.0825,-2.0712,-2.0714,-2.0735,-2.0744,-2.076,-2.0773,-2.0797,-2.0815,-2.0826,-2.0827,-2.0812,-2.081,-2.0796,-2.0792,-2.0791,-2.0786,-2.0774,0,0]},{"header":{"parameterUnit":"m.s-1","parameterCategory":1,"la1":30.2992,"la2":30.254,"lo1":-89.0895,"lo2":-89.0443,"dy":0.0025,"dx":0.0025,"nx":19,"ny":19,"refTime":"2026-03-10T09:00:00:Z","depth":0,"parameterNumber":3,"parameterNumberName":"V-component_of_WINDS"},"data":[0,0,0,3.3501,3.3503,3.3602,3.3603,3.3727,3.3728,0,0,0,0,0,0,0,0,0,0,0,3.3468,3.3469,3.3501,3.3503,3.3602,3.3603,3.3726,3.3728,0,0,0,0,0,0,0,0,0,0,0,3.3468,3.3469,3.347,3.3504,3.3602,3.3603,3.3726,3.3653,0,0,0,0,0,0,0,0,0,0,3.3557,3.3523,3.3469,3.347,3.3504,3.3602,3.3603,3.3649,3.3657,3.368,0,3.3698,0,3.3715,3.3736,3.3736,0,0,0,3.3506,3.3516,3.3546,3.347,3.3505,3.3602,3.3558,3.3654,3.3663,3.3691,3.3699,3.3704,3.3717,3.3736,3.3737,3.3856,3.3856,0,0,3.3501,3.3484,3.354,3.3552,3.3534,3.3555,3.3561,3.3659,3.3668,3.37,3.3707,3.3719,3.3737,3.3738,3.3855,3.3856,0,0,0,3.3483,3.348,3.3508,3.3547,3.3564,3.3558,3.3565,3.3664,3.3674,3.3709,3.372,3.3738,3.3739,3.3855,3.3856,3.3861,0,0,0,3.348,3.347,3.3505,3.3496,3.3562,3.3615,3.3567,3.3668,3.3679,3.3719,3.3738,3.374,3.3855,3.3855,3.386,3.3867,0,0,0,3.3463,3.3468,3.3481,3.3495,3.3537,3.3614,3.363,3.367,3.3686,3.3736,3.3741,3.3854,3.3855,3.3859,3.3865,3.3895,0,0,0,3.3441,3.3483,3.3481,3.3534,3.3536,3.3616,3.3629,3.369,3.3733,3.3738,3.3855,3.3856,3.3859,3.3864,3.3894,3.3918,3.3926,0,0,3.3486,3.3488,3.3521,3.3522,3.3597,3.3602,3.368,3.3735,3.3755,3.3822,3.3825,3.386,3.3865,3.3895,3.3974,3.398,0,0,0,3.353,3.3553,3.3577,3.3617,3.3661,3.3699,3.3745,3.3766,3.3823,3.3785,3.3879,3.3882,3.39,3.3913,3.3918,3.3936,3.386,3.386,3.386,3.3571,3.3594,3.3651,3.3687,3.3727,3.3774,3.3809,3.3846,3.3857,3.388,3.39,3.3945,3.3959,3.3963,3.3981,3.3913,3.3913,3.3913,3.3913,3.3641,3.3679,3.3695,3.3756,3.3781,3.3833,3.3882,3.3889,3.3943,3.3931,3.3948,3.3935,3.3969,3.3987,3.3914,3.3914,3.3914,3.3914,3.3914,3.3672,3.3694,3.3719,3.3782,3.3828,3.3864,3.3915,3.3936,3.3957,3.3974,3.4,3.4,3.4004,3.3984,3.3985,3.3985,3.3985,3.3985,3.3985,3.3694,3.3722,3.3762,3.3813,3.3844,3.3886,3.3936,3.3967,3.4008,3.4019,3.402,3.4031,3.3967,3.3952,3.3988,3.3987,3.3987,3.3987,3.3986,3.376,3.3749,3.381,3.3841,3.3904,3.3951,3.3977,3.4039,3.4068,3.4094,3.4102,3.405,3.4055,3.4051,3.4038,3.4095,3.4095,3.4095,3.4095,3.3787,3.3791,3.386,3.3908,3.3957,3.3989,3.4061,3.4101,3.4141,3.4162,3.4157,3.4141,3.4136,3.4144,3.4138,3.4127,3.4204,3.4204,3.4205,3.383,3.384,3.3896,3.3934,3.3986,3.4031,3.4101,3.4158,3.4201,3.421,3.4179,3.4174,3.415,3.414,3.4148,3.4139,3.4118,0,0]}]]